Location: Newark
(30.1000°N, 109.4667°E)
Time: 17:02:16
(UTC+00:00)

Vanguard 2 Rocket - Pass Details

Date: 21 February 2020
Orbit: 554 x 3326 km, 32.9° (Epoch: 04 April)

Event Time Altitude Azimuth Distance (km) Brightness Sun altitude
Rises 10:29:01 0° 222° (SW) 7,200 12.5 0.4°
Reaches altitude 10° 10:34:02 10° 218° (SW) 6,263 12.0 -0.7°
Maximum altitude 10:53:08 51° 149° (SSE) 3,503 9.7 -4.8°
Drops below altitude 10° 11:07:15 10° 79° (E) 4,788 9.9 -7.8°
Enters shadow 11:07:43 - 78° (ENE) 4,882 9.9 -7.9°
